[[{"header":{"parameterUnit":"m.s-1","parameterCategory":1,"la1":30.2991,"la2":30.254,"lo1":-89.0895,"lo2":-89.0444,"dy":0.0017,"dx":0.0017,"nx":28,"ny":28,"refTime":"2024-06-10T21:00:00:Z","depth":0,"parameterNumber":2,"parameterNumberName":"U-component_of_WINDS"},"data":[0,0,0,0,0,0,0,0,0,0,0,0,0,0,0,0,0,0,0,0,0,0,0,0,0,0,0,0,0,0,0,0,0,0,0,0,0,0,0,0,0,0,0,0,0,0,0,0,0,0,0,0,0,0,0,0,0,0,-3.1239,-3.1239,0,-3.1233,-3.1233,-3.1233,-3.1161,-3.1159,-3.1157,-3.1155,-3.1151,-3.1152,-3.1154,0,0,0,0,0,0,0,0,0,0,0,0,0,-3.1188,-3.119,-3.1239,-3.1239,-3.1239,-3.1233,-3.1233,-3.1233,-3.1161,-3.1159,-3.1157,-3.1155,-3.115,-3.1152,-3.1154,0,0,0,0,0,0,0,0,0,0,0,0,0,-3.12,-3.119,-3.1239,-3.1202,-3.1199,-3.1233,-3.1233,-3.1233,-3.1162,-3.1159,-3.1156,-3.1153,-3.1149,-3.1152,-3.1154,-3.1224,0,0,-3.1161,-3.1162,0,0,0,0,0,0,0,0,-3.1199,-3.1201,-3.1208,-3.1205,-3.1201,-3.1195,-3.1214,-3.123,-3.1162,-3.1176,-3.1155,-3.1152,-3.1168,-3.1168,-3.1173,-3.1224,-3.1224,-3.1162,-3.1163,-3.1164,-3.1165,0,0,0,0,0,0,0,-3.1198,-3.1201,-3.1237,-3.1208,-3.1204,-3.1186,-3.1185,-3.1217,-3.1187,-3.1174,-3.1169,-3.1169,-3.1165,-3.1171,-3.1173,-3.1224,-3.1162,-3.1164,-3.1165,-3.1166,-3.1333,-3.1336,0,0,0,0,0,0,-3.1202,-3.1201,-3.1237,-3.1237,-3.1193,-3.119,-3.1188,-3.12,-3.1187,-3.1182,-3.1172,-3.1166,-3.1169,-3.117,-3.1172,-3.1255,-3.1164,-3.1166,-3.1168,-3.133,-3.1334,-3.1337,0,0,0,0,0,0,-3.1202,-3.1206,-3.1237,-3.1217,-3.122,-3.1193,-3.1207,-3.1201,-3.1207,-3.1185,-3.1179,-3.1183,-3.1166,-3.1169,-3.1212,-3.1254,-3.1167,-3.117,-3.1327,-3.1332,-3.1336,-3.142,0,0,0,0,0,0,-3.1201,-3.1206,-3.1232,-3.1219,-3.1221,-3.1277,-3.121,-3.1203,-3.1211,-3.1204,-3.1194,-3.119,-3.1165,-3.1209,-3.1215,-3.1256,-3.1171,-3.1323,-3.1329,-3.1334,-3.1414,-3.1427,-3.1439,0,0,0,0,0,-3.1199,-3.1256,-3.1234,-3.1239,-3.1253,-3.1279,-3.1281,-3.125,-3.1215,-3.1241,-3.1227,-3.119,-3.1248,-3.1214,-3.122,-3.1262,-3.132,-3.1327,-3.1334,-3.1408,-3.1424,-3.1438,0,0,0,0,0,0,-3.1275,-3.1253,-3.1229,-3.1283,-3.1284,-3.1267,-3.1299,-3.1268,-3.1279,-3.1272,-3.1234,-3.1232,-3.1282,-3.1276,-3.1238,-3.133,-3.1278,-3.1286,-3.1332,-3.1348,-3.136,-3.1361,-3.1173,0,0,0,0,0,-3.1298,-3.1321,-3.1301,-3.135,-3.1352,-3.1326,-3.1336,-3.1313,-3.1312,-3.1312,-3.1301,-3.1302,-3.1321,-3.1334,-3.1349,-3.1412,-3.141,-3.1444,-3.1457,-3.1467,-3.1475,-3.151,-3.1526,-3.136,-3.136,-3.1359,0,0,-3.1346,-3.1337,-3.1353,-3.1366,-3.1363,-3.1389,-3.1326,-3.1355,-3.1374,-3.1316,-3.1357,-3.1349,-3.1348,-3.1402,-3.1425,-3.1398,-3.152,-3.1476,-3.1484,-3.1486,-3.1519,-3.1534,-3.1549,-3.1364,-3.1363,-3.1363,0,0,-3.1446,-3.1441,-3.1483,-3.1482,-3.148,-3.1462,-3.1473,-3.1461,-3.1454,-3.1494,-3.1452,-3.1474,-3.1506,-3.1508,-3.1513,-3.1616,-3.1583,-3.1622,-3.1688,-3.1722,-3.1735,-3.1747,-3.1786,-3.18,-3.163,-3.163,-3.163,0,-3.1506,-3.1542,-3.1508,-3.1541,-3.1548,-3.1497,-3.154,-3.1541,-3.1544,-3.1551,-3.1521,-3.1562,-3.1557,-3.1612,-3.1637,-3.1642,-3.1654,-3.1623,-3.1736,-3.1747,-3.1758,-3.1794,-3.1809,-3.1635,-3.1634,-3.1634,-3.1633,0,-3.1617,-3.1643,-3.1677,-3.1682,-3.1693,-3.1731,-3.1703,-3.1719,-3.1695,-3.1681,-3.1724,-3.1716,-3.1731,-3.1742,-3.1718,-3.1794,-3.1778,-3.1743,-3.169,-3.1779,-3.1813,-3.1826,-3.1642,-3.164,-3.1639,-3.1637,0,0,-3.1765,-3.1752,-3.1765,-3.1768,-3.1762,-3.1782,-3.1818,-3.1832,-3.1847,-3.1851,-3.1881,-3.1911,-3.1879,-3.1884,-3.1861,-3.1891,-3.1976,-3.1852,-3.1852,-3.1877,-3.2062,-3.209,-3.2106,-3.1954,-3.1956,-3.1958,-3.2062,0,-3.1863,-3.1924,-3.1895,-3.1959,-3.1984,-3.1937,-3.1968,-3.1969,-3.1957,-3.1977,-3.1964,-3.1986,-3.1941,-3.1945,-3.1972,-3.196,-3.2013,-3.1952,-3.1983,-3.1985,-3.1987,-3.2123,-3.2152,-3.2251,-3.2075,-3.2077,-3.2079,0,-3.1986,-3.1996,-3.2064,-3.2055,-3.2065,-3.2093,-3.2105,-3.2124,-3.2125,-3.2114,-3.2122,-3.2092,-3.2128,-3.2075,-3.2124,-3.2084,-3.2095,-3.2091,-3.2094,-3.2097,-3.2038,-3.2132,-3.2281,-3.2297,-3.2099,-3.2097,-3.2096,0,-3.209,-3.212,-3.2165,-3.2168,-3.2159,-3.2181,-3.2178,-3.2176,-3.2187,-3.2198,-3.2205,-3.2219,-3.2228,-3.224,-3.2216,-3.2179,-3.227,-3.2214,-3.2264,-3.2265,-3.2286,-3.2285,-3.2441,-3.2291,-3.229,-3.229,-3.229,0,-3.2204,-3.2247,-3.2212,-3.2239,-3.2287,-3.2254,-3.2302,-3.2294,-3.2293,-3.2319,-3.2279,-3.2304,-3.2269,-3.2292,-3.2273,-3.2318,-3.2322,-3.2315,-3.231,-3.232,-3.2321,-3.2328,-3.2321,-3.2294,-3.2293,-3.2292,-3.2292,0,-3.2328,-3.2306,-3.2352,-3.234,-3.2338,-3.2374,-3.2364,-3.239,-3.2376,-3.2409,-3.2415,-3.2393,-3.2418,-3.2394,-3.2417,-3.2404,-3.2466,-3.245,-3.2467,-3.2463,-3.2514,-3.2511,-3.2681,-3.2703,-3.2537,-3.2539,-3.254,0,-3.2403,-3.2435,-3.2428,-3.2442,-3.2442,-3.2466,-3.2478,-3.2447,-3.2461,-3.2465,-3.2491,-3.2512,-3.2527,-3.2569,-3.2555,-3.2573,-3.2559,-3.2617,-3.2561,-3.2571,-3.2562,-3.2561,-3.2565,-3.2629,-3.2631,-3.2633,-3.2634,0,-3.2539,-3.2527,-3.2545,-3.256,-3.2575,-3.2585,-3.2592,-3.2607,-3.2575,-3.2593,-3.2618,-3.263,-3.2654,-3.2676,-3.2691,-3.2688,-3.2657,-3.2652,-3.2665,-3.2676,-3.2685,-3.2683,-3.25,-3.2648,-3.2647,-3.2646,-3.2645,-3.2644,-3.2642,-3.267,-3.2669,-3.2691,-3.2694,-3.2702,-3.2726,-3.2715,-3.2735,-3.2753,-3.2733,-3.2764,-3.2766,-3.2781,-3.2783,-3.2808,-3.2783,-3.2801,-3.2806,-3.2812,-3.282,-3.268,-3.281,-3.281,-3.2809,-3.2809,-3.2808,0,-3.2778,-3.2776,-3.2796,-3.2808,-3.2826,-3.2794,-3.2801,-3.2818,-3.2846,-3.285,-3.2866,-3.2896,-3.2918,-3.2907,-3.2926,-3.2948,-3.2934,-3.2954,-3.2953,-3.2954,-3.284,-3.2828,-3.2965,-3.2965,-3.2965,-3.2965,-3.2965,-3.2965,-3.2851,-3.2897,-3.2885,-3.2932,-3.2929,-3.2959,-3.2966,-3.2974,-3.2977,-3.3012,-3.303,-3.3023,-3.3021,-3.304,-3.3059,-3.3056,-3.3066,-3.3091,-3.3083,-3.2977,-3.2962,-3.2947,-3.2936,-3.3093,-3.3093,-3.3195,-3.3196,-3.3197]},{"header":{"parameterUnit":"m.s-1","parameterCategory":1,"la1":30.2991,"la2":30.254,"lo1":-89.0895,"lo2":-89.0444,"dy":0.0017,"dx":0.0017,"nx":28,"ny":28,"refTime":"2024-06-10T21:00:00:Z","depth":0,"parameterNumber":3,"parameterNumberName":"V-component_of_WINDS"},"data":[0,0,0,0,0,0,0,0,0,0,0,0,0,0,0,0,0,0,0,0,0,0,0,0,0,0,0,0,0,0,0,0,0,0,0,0,0,0,0,0,0,0,0,0,0,0,0,0,0,0,0,0,0,0,0,0,0,0,-1.7601,-1.7601,0,-1.7628,-1.7628,-1.7628,-1.7613,-1.7613,-1.7612,-1.7611,-1.7638,-1.7639,-1.7641,0,0,0,0,0,0,0,0,0,0,0,0,0,-1.7534,-1.7535,-1.7601,-1.7601,-1.7601,-1.7628,-1.7628,-1.7628,-1.7613,-1.7613,-1.7612,-1.7611,-1.7637,-1.7639,-1.7641,0,0,0,0,0,0,0,0,0,0,0,0,0,-1.7562,-1.7536,-1.7601,-1.7597,-1.7597,-1.7628,-1.7628,-1.7629,-1.7614,-1.7612,-1.7611,-1.761,-1.7637,-1.7639,-1.7641,-1.7676,0,0,-1.7647,-1.7648,0,0,0,0,0,0,0,0,-1.7561,-1.7565,-1.7597,-1.7597,-1.7597,-1.7616,-1.7614,-1.7645,-1.7614,-1.7607,-1.7611,-1.761,-1.7631,-1.7634,-1.7641,-1.7678,-1.7679,-1.7648,-1.7649,-1.765,-1.765,0,0,0,0,0,0,0,-1.7559,-1.7563,-1.7611,-1.7598,-1.7598,-1.7593,-1.7596,-1.762,-1.7625,-1.7608,-1.7607,-1.761,-1.7631,-1.7639,-1.7642,-1.7679,-1.7647,-1.7649,-1.7651,-1.7651,-1.7745,-1.7746,0,0,0,0,0,0,-1.7557,-1.7562,-1.761,-1.7612,-1.7576,-1.7596,-1.7599,-1.7611,-1.7625,-1.7626,-1.7611,-1.7609,-1.7636,-1.7639,-1.7643,-1.7685,-1.765,-1.7652,-1.7653,-1.7744,-1.7745,-1.7746,0,0,0,0,0,0,-1.7556,-1.7562,-1.7609,-1.7587,-1.7592,-1.7598,-1.7612,-1.7612,-1.762,-1.7628,-1.7628,-1.7619,-1.7636,-1.764,-1.7668,-1.7686,-1.7653,-1.7655,-1.7742,-1.7744,-1.7746,-1.777,0,0,0,0,0,0,-1.7554,-1.7561,-1.7575,-1.7587,-1.7594,-1.7635,-1.7613,-1.7614,-1.7624,-1.7622,-1.7635,-1.7636,-1.7635,-1.7665,-1.767,-1.7688,-1.7656,-1.7741,-1.7743,-1.7745,-1.7767,-1.7772,-1.7776,0,0,0,0,0,-1.7552,-1.7581,-1.7576,-1.7582,-1.7612,-1.7636,-1.764,-1.7639,-1.7626,-1.764,-1.7644,-1.7635,-1.7683,-1.7668,-1.7674,-1.7692,-1.7739,-1.7742,-1.7745,-1.7765,-1.7771,-1.7776,0,0,0,0,0,0,-1.7571,-1.7582,-1.7577,-1.7611,-1.7623,-1.7633,-1.7651,-1.7645,-1.766,-1.7657,-1.7655,-1.7658,-1.7687,-1.7692,-1.7676,-1.7727,-1.7709,-1.7713,-1.7722,-1.7728,-1.7732,-1.7731,-1.7658,0,0,0,0,0,-1.7579,-1.7598,-1.7607,-1.7636,-1.7642,-1.7646,-1.7656,-1.7654,-1.7666,-1.7671,-1.7677,-1.7688,-1.7705,-1.7717,-1.7733,-1.7768,-1.777,-1.7783,-1.7787,-1.7791,-1.7795,-1.7813,-1.7819,-1.7755,-1.7755,-1.7755,0,0,-1.7596,-1.7605,-1.7617,-1.764,-1.7649,-1.7669,-1.765,-1.7671,-1.7686,-1.7674,-1.7701,-1.7706,-1.7718,-1.7749,-1.7763,-1.7755,-1.7812,-1.7795,-1.7797,-1.7799,-1.7816,-1.7822,-1.7827,-1.7757,-1.7757,-1.7757,0,0,-1.7638,-1.7646,-1.7671,-1.768,-1.7693,-1.7695,-1.7701,-1.7713,-1.7715,-1.7743,-1.7734,-1.775,-1.778,-1.7789,-1.7798,-1.7841,-1.7834,-1.7846,-1.787,-1.7887,-1.7892,-1.7897,-1.7912,-1.7917,-1.785,-1.785,-1.785,0,-1.7657,-1.7687,-1.7685,-1.7707,-1.7717,-1.7707,-1.7732,-1.7741,-1.7758,-1.7765,-1.7755,-1.7792,-1.78,-1.7833,-1.7843,-1.785,-1.7857,-1.7845,-1.7892,-1.7896,-1.79,-1.7915,-1.792,-1.7851,-1.7851,-1.7851,-1.7851,0,-1.771,-1.7731,-1.7749,-1.7767,-1.7779,-1.7802,-1.7803,-1.7816,-1.7812,-1.7815,-1.7842,-1.7851,-1.7868,-1.7876,-1.7873,-1.7908,-1.7902,-1.7892,-1.7874,-1.7908,-1.7921,-1.7927,-1.7854,-1.7853,-1.7853,-1.7852,0,0,-1.7766,-1.7781,-1.7788,-1.7796,-1.7809,-1.7824,-1.7847,-1.7864,-1.7875,-1.7887,-1.7905,-1.793,-1.7921,-1.793,-1.7928,-1.7943,-1.7977,-1.7931,-1.7931,-1.7939,-1.8016,-1.8024,-1.803,-1.7972,-1.7973,-1.7973,-1.8015,0,-1.7808,-1.7848,-1.7846,-1.7883,-1.7902,-1.7892,-1.7911,-1.7921,-1.7924,-1.7939,-1.7942,-1.796,-1.7946,-1.7951,-1.7966,-1.797,-1.7992,-1.7967,-1.7988,-1.7989,-1.7986,-1.8038,-1.8046,-1.8085,-1.802,-1.8021,-1.8022,0,-1.7863,-1.7877,-1.7916,-1.7926,-1.7934,-1.7951,-1.7967,-1.7982,-1.7992,-1.7993,-1.8003,-1.7998,-1.802,-1.8001,-1.8031,-1.8014,-1.8022,-1.8025,-1.8027,-1.8029,-1.8008,-1.8041,-1.8097,-1.8103,-1.803,-1.803,-1.8029,0,-1.7899,-1.7928,-1.7955,-1.7962,-1.7974,-1.7986,-1.7992,-1.8002,-1.8012,-1.8025,-1.8031,-1.8047,-1.8055,-1.8067,-1.8066,-1.8052,-1.8096,-1.8077,-1.8097,-1.8097,-1.8107,-1.8107,-1.8165,-1.8112,-1.8112,-1.8112,-1.8112,0,-1.7947,-1.7971,-1.7971,-1.7988,-1.8015,-1.8012,-1.8038,-1.8042,-1.805,-1.8067,-1.8059,-1.8075,-1.8072,-1.8087,-1.8086,-1.8111,-1.8115,-1.8116,-1.8115,-1.8117,-1.8117,-1.8123,-1.812,-1.8114,-1.8113,-1.8113,-1.8113,0,-1.7993,-1.7994,-1.8022,-1.8031,-1.8034,-1.8053,-1.8061,-1.8076,-1.8077,-1.8099,-1.8103,-1.8106,-1.8124,-1.8123,-1.8143,-1.8143,-1.8173,-1.8169,-1.817,-1.8169,-1.8189,-1.8187,-1.8254,-1.8262,-1.8203,-1.8204,-1.8205,0,-1.8023,-1.8042,-1.8052,-1.8063,-1.807,-1.8087,-1.8097,-1.8095,-1.8106,-1.8119,-1.8132,-1.8149,-1.8163,-1.8191,-1.8195,-1.821,-1.8206,-1.8229,-1.8209,-1.8209,-1.8207,-1.8206,-1.8207,-1.8233,-1.8233,-1.8234,-1.8234,0,-1.8077,-1.8077,-1.8092,-1.8108,-1.8121,-1.8133,-1.8144,-1.8153,-1.8151,-1.8164,-1.8182,-1.8192,-1.8213,-1.8229,-1.8244,-1.8249,-1.8241,-1.8241,-1.8246,-1.8248,-1.8247,-1.8248,-1.8181,-1.8239,-1.8239,-1.8238,-1.8238,-1.8238,-1.8116,-1.8132,-1.8142,-1.8159,-1.8167,-1.8178,-1.8192,-1.8196,-1.8211,-1.8227,-1.8225,-1.8245,-1.8254,-1.8272,-1.8278,-1.8294,-1.8286,-1.8294,-1.8296,-1.8298,-1.83,-1.8245,-1.8296,-1.8296,-1.8296,-1.8296,-1.8296,0,-1.817,-1.8176,-1.8192,-1.8207,-1.8221,-1.8213,-1.8224,-1.8236,-1.8254,-1.8263,-1.8276,-1.8296,-1.8312,-1.8316,-1.8332,-1.8343,-1.834,-1.8347,-1.8346,-1.8347,-1.8306,-1.83,-1.8349,-1.8349,-1.8349,-1.8349,-1.8349,-1.8349,-1.82,-1.8226,-1.8226,-1.8256,-1.8261,-1.8281,-1.8288,-1.8297,-1.8304,-1.8328,-1.8341,-1.8343,-1.835,-1.8366,-1.838,-1.838,-1.8386,-1.8395,-1.8394,-1.8356,-1.835,-1.8345,-1.834,-1.8396,-1.8396,-1.8434,-1.8435,-1.8435]}]]